TimeCST,TemperatureF,Dew PointF,Humidity,Sea Level PressureIn,VisibilityMPH,Wind Direction,Wind SpeedMPH,Gust SpeedMPH,PrecipitationIn,Events,Conditions,WindDirDegrees,DateUTC
12:15 AM,50.0,32.0,50,29.80,10.0,SW,12.7,-,N/A,,Clear,230,2013-01-28 06:15:00
12:35 AM,48.2,32.0,54,29.80,10.0,SW,10.4,-,N/A,,Clear,230,2013-01-28 06:35:00
12:55 AM,46.4,32.0,57,29.81,10.0,SW,11.5,-,N/A,,Clear,230,2013-01-28 06:55:00
1:15 AM,48.2,32.0,54,29.81,10.0,SW,13.8,-,N/A,,Clear,230,2013-01-28 07:15:00
1:55 AM,50.0,32.0,50,29.80,10.0,SW,16.1,-,N/A,,Clear,230,2013-01-28 07:55:00
2:15 AM,50.0,32.0,50,29.81,10.0,SW,16.1,-,N/A,,Clear,230,2013-01-28 08:15:00
2:35 AM,50.0,32.0,50,29.82,10.0,SSW,15.0,-,N/A,,Clear,200,2013-01-28 08:35:00
2:55 AM,46.4,32.0,57,29.81,10.0,SW,15.0,-,N/A,,Clear,220,2013-01-28 08:55:00
3:15 AM,48.2,32.0,54,29.81,10.0,SW,13.8,-,N/A,,Clear,220,2013-01-28 09:15:00
3:35 AM,46.4,32.0,57,29.81,10.0,SW,11.5,-,N/A,,Clear,230,2013-01-28 09:35:00
3:55 AM,44.6,32.0,61,29.80,10.0,SW,10.4,-,N/A,,Clear,230,2013-01-28 09:55:00
4:15 AM,44.6,32.0,61,29.80,10.0,SW,11.5,-,N/A,,Clear,230,2013-01-28 10:15:00
4:35 AM,42.8,32.0,66,29.81,10.0,SW,11.5,-,N/A,,Clear,230,2013-01-28 10:35:00
4:55 AM,42.8,32.0,66,29.81,10.0,SW,11.5,-,N/A,,Clear,220,2013-01-28 10:55:00
5:15 AM,41.0,32.0,70,29.81,10.0,SSW,11.5,-,N/A,,Clear,210,2013-01-28 11:15:00
5:35 AM,42.8,32.0,66,29.80,10.0,SSW,10.4,-,N/A,,Clear,210,2013-01-28 11:35:00
6:15 AM,42.8,33.8,70,29.80,10.0,SSW,9.2,-,N/A,,Clear,210,2013-01-28 12:15:00
6:35 AM,42.8,33.8,70,29.80,10.0,SSW,10.4,-,N/A,,Clear,200,2013-01-28 12:35:00
6:55 AM,44.6,33.8,66,29.80,10.0,SW,11.5,-,N/A,,Clear,220,2013-01-28 12:55:00
7:15 AM,46.4,33.8,62,29.80,10.0,SW,17.3,21.9,N/A,,Clear,220,2013-01-28 13:15:00
7:35 AM,48.2,33.8,58,29.80,10.0,SW,18.4,-,N/A,,Clear,220,2013-01-28 13:35:00
7:55 AM,46.4,33.8,62,29.82,10.0,SSW,17.3,-,N/A,,Clear,210,2013-01-28 13:55:00
8:15 AM,46.4,33.8,62,29.83,10.0,SSW,16.1,-,N/A,,Clear,210,2013-01-28 14:15:00
8:35 AM,46.4,33.8,62,29.83,10.0,SSW,18.4,-,N/A,,Clear,210,2013-01-28 14:35:00
8:55 AM,50.0,35.6,58,29.83,10.0,SW,17.3,-,N/A,,Clear,220,2013-01-28 14:55:00
9:15 AM,51.8,35.6,54,29.83,10.0,SW,17.3,20.7,N/A,,Clear,220,2013-01-28 15:15:00
9:35 AM,55.4,35.6,47,29.82,10.0,SW,16.1,-,N/A,,Clear,220,2013-01-28 15:35:00
9:55 AM,57.2,35.6,44,29.82,10.0,SW,17.3,21.9,N/A,,Clear,220,2013-01-28 15:55:00
10:15 AM,62.6,35.6,37,29.81,10.0,SW,21.9,27.6,N/A,,Clear,220,2013-01-28 16:15:00
10:35 AM,62.6,35.6,37,29.81,10.0,SSW,18.4,26.5,N/A,,Clear,210,2013-01-28 16:35:00
10:55 AM,64.4,35.6,34,29.81,10.0,SSW,18.4,21.9,N/A,,Clear,210,2013-01-28 16:55:00
11:15 AM,64.4,33.8,32,29.81,10.0,SSW,18.4,23.0,N/A,,Clear,210,2013-01-28 17:15:00
11:35 AM,66.2,33.8,30,29.80,10.0,SW,20.7,26.5,N/A,,Clear,220,2013-01-28 17:35:00
11:55 AM,68.0,33.8,28,29.79,10.0,SW,21.9,26.5,N/A,,Clear,220,2013-01-28 17:55:00
12:15 PM,69.8,32.0,25,29.78,10.0,WSW,25.3,32.2,N/A,,Clear,240,2013-01-28 18:15:00
12:35 PM,69.8,32.0,25,29.76,10.0,SW,20.7,29.9,N/A,,Clear,220,2013-01-28 18:35:00
12:55 PM,71.6,32.0,23,29.74,10.0,SSW,21.9,27.6,N/A,,Clear,210,2013-01-28 18:55:00
1:15 PM,71.6,32.0,23,29.73,10.0,SSW,24.2,29.9,N/A,,Clear,200,2013-01-28 19:15:00
1:35 PM,71.6,32.0,23,29.72,10.0,SW,27.6,32.2,N/A,,Clear,230,2013-01-28 19:35:00
1:55 PM,71.6,32.0,23,29.70,10.0,SW,27.6,33.4,N/A,,Clear,230,2013-01-28 19:55:00
2:15 PM,71.6,32.0,23,29.69,10.0,SW,26.5,34.5,N/A,,Clear,220,2013-01-28 20:15:00
2:35 PM,71.6,32.0,23,29.68,10.0,SW,25.3,34.5,N/A,,Clear,220,2013-01-28 20:35:00
2:55 PM,71.6,32.0,23,29.68,10.0,SW,27.6,35.7,N/A,,Clear,220,2013-01-28 20:55:00
3:15 PM,71.6,32.0,23,29.68,10.0,SW,28.8,36.8,N/A,,Clear,220,2013-01-28 21:15:00
3:35 PM,71.6,32.0,23,29.67,10.0,SSW,24.2,36.8,N/A,,Clear,210,2013-01-28 21:35:00
3:55 PM,71.6,32.0,23,29.67,10.0,SSW,27.6,35.7,N/A,,Clear,210,2013-01-28 21:55:00
4:15 PM,71.6,30.2,22,29.67,10.0,SSW,28.8,35.7,N/A,,Clear,210,2013-01-28 22:15:00
4:35 PM,71.6,30.2,22,29.66,10.0,SSW,23.0,32.2,N/A,,Clear,210,2013-01-28 22:35:00
4:55 PM,69.8,28.4,21,29.66,10.0,SSW,26.5,32.2,N/A,,Clear,210,2013-01-28 22:55:00
5:15 PM,69.8,30.2,23,29.66,10.0,SSW,24.2,32.2,N/A,,Clear,210,2013-01-28 23:15:00
5:35 PM,68.0,30.2,24,29.66,10.0,SSW,17.3,-,N/A,,Clear,210,2013-01-28 23:35:00
5:55 PM,66.2,30.2,26,29.66,10.0,SW,18.4,24.2,N/A,,Clear,220,2013-01-28 23:55:00
6:15 PM,64.4,28.4,26,29.67,10.0,SSW,17.3,24.2,N/A,,Clear,210,2013-01-29 00:15:00
6:35 PM,64.4,30.2,28,29.67,10.0,SSW,13.8,-,N/A,,Clear,210,2013-01-29 00:35:00
6:55 PM,62.6,30.2,30,29.67,10.0,SSW,15.0,-,N/A,,Clear,210,2013-01-29 00:55:00
7:15 PM,60.8,30.2,31,29.68,10.0,SSW,11.5,-,N/A,,Clear,210,2013-01-29 01:15:00
7:35 PM,60.8,30.2,31,29.68,10.0,SSW,11.5,-,N/A,,Clear,210,2013-01-29 01:35:00
7:55 PM,60.8,30.2,31,29.69,10.0,SSW,13.8,19.6,N/A,,Clear,210,2013-01-29 01:55:00
8:15 PM,57.2,30.2,36,29.68,10.0,South,10.4,-,N/A,,Clear,190,2013-01-29 02:15:00
8:35 PM,55.4,32.0,41,29.68,10.0,South,10.4,-,N/A,,Clear,190,2013-01-29 02:35:00
8:55 PM,59.0,32.0,36,29.68,10.0,SSW,15.0,-,N/A,,Clear,200,2013-01-29 02:55:00
9:15 PM,59.0,32.0,36,29.69,10.0,SSW,15.0,-,N/A,,Clear,200,2013-01-29 03:15:00
9:35 PM,59.0,30.2,34,29.68,10.0,SSW,15.0,-,N/A,,Clear,200,2013-01-29 03:35:00
9:55 PM,59.0,30.2,34,29.68,10.0,SSW,16.1,-,N/A,,Clear,200,2013-01-29 03:55:00
10:15 PM,57.2,30.2,36,29.68,10.0,SSW,17.3,21.9,N/A,,Clear,210,2013-01-29 04:15:00
10:35 PM,55.4,30.2,38,29.69,10.0,SW,17.3,-,N/A,,Clear,220,2013-01-29 04:35:00
10:55 PM,53.6,30.2,41,29.69,10.0,SW,15.0,-,N/A,,Clear,230,2013-01-29 04:55:00
11:15 PM,53.6,30.2,41,29.69,10.0,SW,17.3,-,N/A,,Clear,230,2013-01-29 05:15:00
11:35 PM,55.4,30.2,38,29.69,10.0,SW,16.1,-,N/A,,Clear,220,2013-01-29 05:35:00
11:55 PM,55.4,28.4,36,29.69,10.0,WSW,16.1,21.9,N/A,,Clear,240,2013-01-29 05:55:00